Location: Unspecified
(0.0000°N, 0.0000°E)
Time: 10:33:18
(UTC+00:00)

N. Korean satellite - Pass Details

Date: 26 January 2021
Orbit: 451 x 503 km, 97.2° (Epoch: 27 February)

Event Time Altitude Azimuth Distance (km) Brightness Sun altitude
Rises 04:29:37 0° 33° (NNE) 2,443 10.3 -24.3°
Reaches altitude 10° 04:31:58 10° 50° (NE) 1,574 9.5 -23.7°
Maximum altitude 04:34:36 21° 101° (E) 1,054 9.1 -23.1°
Drops below altitude 10° 04:37:15 10° 153° (SSE) 1,584 9.8 -22.5°
Sets 04:39:36 0° 169° (S) 2,464 10.6 -21.9°
